Location: Unspecified
(41.5516°N, 88.1098°W)
Time: 11:44:36
(UTC-06:00)

Resurs 1-4 Rocket - Visible Passes

Search period start: 21 November 2014 00:00
Search period end: 01 December 2014 00:00
Orbit: 800 x 815 km, 98.4° (Epoch: 21 November)

Date Brightness Start Highest point End Pass type
(mag) Time Alt. Az. Time Alt. Az. Time Alt. Az.
21 Nov 4.2 03:56:48 10° NNE 03:57:55 17° NNE 03:57:55 17° NNE visible
22 Nov 4.6 03:32:27 10° NNE 03:33:00 13° NNE 03:33:00 13° NNE visible
22 Nov 4.0 05:13:24 10° NNW 05:14:05 13° NNW 05:14:05 13° NNW visible
23 Nov 4.1 04:48:19 10° N 04:49:10 14° NNW 04:49:10 14° NNW visible
24 Nov 4.2 04:23:32 10° N 04:24:15 14° N 04:24:15 14° N visible
25 Nov 4.5 03:58:57 10° NNE 03:59:21 12° N 03:59:21 12° N visible
27 Nov 4.3 04:50:31 10° N 04:50:38 11° N 04:50:38 11° N visible
28 Nov 4.5 04:25:42 10° N 04:25:45 10° N 04:25:45 10° N visible
